Fall Fun Fest 5K CEF 2018

# of participants: 189# of finishers: 189last updated: 10/20/2018 10:08 am
Result Questions?
Award Bib First Name Last Name Category Cat Rank Gender Gen Rank Age Age Group AG Rank Elapsed Time Pace
4151 RACHEL WRIGHT 5K 101 F 39 37 30-39 12 39:11.54 12:38/mile
4359 SUZANNE GODFREY 5K 102 F 40 44 40-49 9 39:14.84 12:39/mile
4137 ALEX ROCHA 5K 103 M 63 25 20-29 2 39:19.77 12:41/mile
4306 JAMES MURRAY 5K 104 M 64 9 1-10 21 40:01.51 12:54/mile
4305 BOB MURRAY 5K 105 M 65 38 30-39 13 40:04.94 12:55/mile
4150 GEMMA D'AMBROSIO 5K 106 F 41 6 1-10 4 40:05.86 12:56/mile
4149 JOANNA D'AMBROSIO 5K 107 F 42 34 30-39 13 40:06.35 12:56/mile
4184 BRANDON ELLICOTT 5K 108 M 66 9 1-10 22 40:17.60 12:59/mile
4188 LINDSEY BUTLER 5K 109 F 43 33 30-39 14 40:26.78 13:02/mile
4189 CHANDLER BUTLER 5K 110 F 44 6 1-10 5 40:27.17 13:02/mile
4181 MICHAEL ELLICOTT 5K 111 M 67 46 40-49 9 40:31.92 13:04/mile
4384 CHRISTINA RAYDER 5K 112 F 45 49 40-49 10 40:32.70 13:04/mile
4145 JACKSON CLAUNCH 5K 113 M 68 8 1-10 23 40:35.89 13:05/mile
4155 CARRIE HUBENY 5K 114 F 46 26 20-29 2 41:05.66 13:15/mile
4325 TERI DANIELS 5K 115 F 47 48 40-49 11 41:16.54 13:18/mile
4326 GINNY DEVINE 5K 116 F 48 49 40-49 12 41:17.10 13:19/mile
4109 EMMA GRACE HANSEN 5K 117 F 49 14 11-14 6 41:44.39 13:27/mile
4350 RYE GILLESPIE 5K 118 M 69 6 1-10 24 41:57.80 13:32/mile
4349 COURTNEY GILLESPIE 5K 119 F 50 36 30-39 15 42:00.26 13:32/mile
4167 JENNIFER PETKOVSEK 5K 120 F 51 36 30-39 16 42:06.38 13:34/mile
4169 LUKE PETKOVSEK 5K 121 M 70 8 1-10 25 42:06.40 13:34/mile
4403 VEDANT RAMAKRISHNAN 5K 122 M 71 6 1-10 26 42:37.09 13:44/mile
4379 ELISA ESPINOSA 5K 123 F 52 4 1-10 6 42:49.87 13:48/mile
4378 MIA ESPINOSA 5K 124 F 53 6 1-10 7 42:51.53 13:49/mile
4376 VICTOR ESPINOSA 5K 125 M 72 39 30-39 14 42:51.87 13:49/mile
4390 BROOKE BERRETTA 5K 126 F 54 33 30-39 17 42:55.87 13:50/mile
4389 ZOEY SMITH 5K 127 F 55 9 1-10 8 42:55.93 13:50/mile
4119 CRYSTAL WILLIAMS 5K 128 F 56 31 30-39 18 43:32.20 14:02/mile
4362 MICHAEL CAULK 5K 129 M 73 42 40-49 10 43:37.70 14:04/mile
4110 OLIVIA HANSEN 5K 130 F 57 12 11-14 7 43:48.56 14:07/mile
4174 HAYDEN GRISHAM 5K 131 M 74 8 1-10 27 43:52.18 14:09/mile
4173 KATIE GRISHAM 5K 132 F 58 33 30-39 19 43:56.73 14:10/mile
4356 LISA ALLEN ALLEN 5K 133 F 59 43 40-49 13 44:18.97 14:17/mile
4194 SIDDHARTH SENTHILVEL 5K 134 M 75 8 1-10 28 44:19.14 14:17/mile
4364 GAIGE SLATE 5K 135 M 76 9 1-10 29 44:54.97 14:29/mile
4365 KELLEN CAULK 5K 136 M 77 8 1-10 30 45:04.67 14:32/mile
4363 RACHEL CAULK 5K 137 F 60 34 30-39 20 45:09.75 14:34/mile
4358 JILLIAN TALBOT 5K 138 F 61 34 30-39 21 46:09.43 14:53/mile
4345 JASON PRYOR 5K 139 M 78 44 40-49 11 46:58.38 15:09/mile
4130 MALLORY MOSTELLER 5K 140 F 62 6 1-10 9 47:13.66 15:14/mile
4442 CHRIS MOSTELLER 5K 141 M 79 38 30-39 15 47:22.19 15:16/mile
4148 PAT RAPE 5K 142 F 63 65 60-69 4 47:46.04 15:24/mile
4331 LANEY CLAIRE TAYLOR 5K 143 F 64 9 1-10 10 47:46.34 15:24/mile
4330 JULIA TAYLOR 5K 144 F 65 39 30-39 22 47:51.47 15:26/mile
4316 MEGHNA RAVIMEHRA 5K 145 F 66 40 40-49 14 47:57.50 15:28/mile
4318 NANDINI RAVINOOTALA 5K 146 F 67 10 1-10 11 47:58.09 15:28/mile
4324 ARIHANT SENAPATHY 5K 147 M 80 9 1-10 31 48:04.51 15:30/mile
4385 JOTHILAKSHMI BALAKRISHNAN 5K 148 F 68 40 40-49 15 48:04.85 15:30/mile
4319 MANASI RAVINOOTALA 5K 149 F 69 8 1-10 12 48:18.15 15:34/mile
4317 NARENDRA RAVINOOTALA 5K 150 M 81 42 40-49 12 48:19.07 15:35/mile
4444 CHRISTIAN ALSIP 5K 151 M 82 10 1-10 32 48:24.00 15:36/mile
4191 ELLA SCHULTZ 5K 152 F 70 6 1-10 13 48:45.88 15:43/mile
4183 JESSICA ELLICOTT 5K 153 F 71 9 1-10 14 48:46.61 15:44/mile
4190 JOSH SCHULTZ 5K 154 M 83 33 30-39 16 48:48.72 15:44/mile
4443 LYNDSEY ALSIP 5K 155 F 72 36 30-39 23 48:50.97 15:45/mile
4198 CADENCE BRUNTZ-HANSEN 5K 156 F 73 8 1-10 15 49:34.11 15:59/mile
4146 LARRY RUIZ 5K 157 M 84 51 50-59 10 49:40.02 16:01/mile
4313 MILENA DANG 5K 158 F 74 7 1-10 16 49:42.87 16:02/mile
4171 ANNA WOO 5K 159 F 75 7 1-10 17 49:43.03 16:02/mile
4147 MAKAYLA RUIZ 5K 160 F 76 9 1-10 18 49:50.69 16:04/mile
4121 KATIE BAILEY 5K 161 F 77 33 30-39 24 50:30.53 16:17/mile
4122 TOBIN BAILEY 5K 162 M 85 6 1-10 33 50:42.41 16:21/mile
4131 KELSEY WILLIAMS 5K 163 F 78 30 30-39 25 50:45.20 16:22/mile
4404 HANNAH EDDINGS 5K 164 F 79 29 20-29 3 50:46.59 16:22/mile
4440 MYLES THOMPSON 5K 165 M 86 9 1-10 34 51:13.08 16:31/mile
4193 ALLISON YAN 5K 166 F 80 7 1-10 19 51:17.71 16:32/mile
4441 KOON-KIU YAN 5K 167 M 87 42 40-49 13 51:18.33 16:33/mile
4177 EMMA BUSH 5K 168 F 81 14 11-14 8 51:44.95 16:41/mile
4124 KAYLA RICE 5K 169 F 82 14 11-14 9 51:45.90 16:41/mile
4185 ELIE LASSITER 5K 170 F 83 14 11-14 10 51:46.87 16:42/mile
4370 AVERY POTADA 5K 171 F 84 11 11-14 11 51:53.58 16:44/mile
4180 ABIGAIL CANNON 5K 172 F 85 10 1-10 20 51:55.48 16:44/mile
4166 AVERIE MILLER 5K 173 F 86 6 1-10 21 52:05.19 16:48/mile
4175 DONNA MALONE 5K 174 F 87 64 60-69 5 52:06.99 16:48/mile
4163 MARIE MILLIKIN 5K 175 F 88 36 30-39 26 52:07.62 16:48/mile
4176 MIKE MALONE 5K 176 M 88 64 60-69 3 52:11.32 16:50/mile
4388 ISABEL FERGUSON 5K 177 F 89 14 11-14 12 52:20.06 16:52/mile
4186 SARAH REEVES 5K 178 F 90 14 11-14 13 52:21.70 16:53/mile
4162 LAURIE MILLER 5K 179 F 91 33 30-39 27 52:32.53 16:56/mile
4107 CHRISTIAN HANSEN 5K 180 F 92 34 30-39 28 53:25.21 17:13/mile
4164 BRIAN MILLIKIN 5K 181 M 89 35 30-39 17 53:32.50 17:16/mile
4143 MICHAEL CLAUNCH 5K 182 M 90 36 30-39 18 53:56.05 17:23/mile
4394 REAGAN BURLESON 5K 183 F 93 8 1-10 22 54:56.11 17:43/mile
4128 ELISABETH BERRY 5K 184 F 94 8 1-10 23 55:02.39 17:45/mile
4111 MELINDA FERRANTE 5K 185 F 95 57 50-59 8 56:22.28 18:11/mile
4301 STEVEN HENRY 5K 186 M 91 52 50-59 11 56:39.70 18:16/mile
4106 ELIZABETH STRAUBE 5K 187 F 96 37 30-39 29 1:03:46.83 20:34/mile
4114 LISA BRIMHALL 5K 188 F 97 59 50-59 9 1:03:47.61 20:34/mile
4402 VANSHIKA RAMAKRISHNAN 5K 189 F 98 8 1-10 24 8:44:59.50 2:49:21/mile